CST,Max TemperatureF,Mean TemperatureF,Min TemperatureF,Max Dew PointF,MeanDew PointF,Min DewpointF,Max Humidity, Mean Humidity, Min Humidity, Max Sea Level PressureIn, Mean Sea Level PressureIn, Min Sea Level PressureIn, Max VisibilityMiles, Mean VisibilityMiles, Min VisibilityMiles, Max Wind SpeedMPH, Mean Wind SpeedMPH, Max Gust SpeedMPH,PrecipitationIn, CloudCover, Events, WindDirDegrees
2014-1-1,12,11,9,7,6,3,83,78,73,30.34,30.24,30.16,10,4,0,18,14,22,0.02,7,Fog-Snow,30
2014-1-2,9,0,-10,3,-3,-14,82,74,65,30.53,30.42,30.30,10,10,7,20,13,24,T,4,Snow,321
2014-1-3,34,12,-11,14,-1,-15,83,58,33,30.50,30.12,29.70,10,10,9,29,16,37,0.00,1,,181
2014-1-4,19,17,14,13,11,6,80,74,67,30.10,29.91,29.70,10,8,1,24,19,31,0.00,7,Rain-Snow,309
2014-1-5,14,3,-9,4,-8,-21,76,62,47,30.43,30.30,30.16,10,9,6,36,23,44,0.00,5,,332
2014-1-6,-3,-8,-13,-13,-19,-24,64,57,50,30.48,30.42,30.35,10,10,2,31,17,37,T,5,Snow,285
2014-1-7,15,4,-8,3,-4,-14,76,65,53,30.39,30.27,30.15,10,10,10,13,6,15,0.00,3,,152
2014-1-8,14,9,4,1,0,-3,83,71,58,30.52,30.45,30.30,10,10,10,9,6,12,0.00,4,,29
2014-1-9,25,14,3,23,11,-3,88,77,66,30.49,30.25,30.05,10,8,1,13,9,15,0.00,7,,138
2014-1-10,35,30,25,34,31,24,100,95,89,30.05,29.73,29.52,10,3,0,17,9,21,T,8,Fog,174
2014-1-11,37,30,23,31,26,21,92,78,64,29.88,29.71,29.54,10,9,5,23,12,27,0.00,4,,282
2014-1-12,53,39,25,33,29,23,92,68,44,29.84,29.64,29.51,10,10,10,26,12,34,0.00,0,,207
2014-1-13,40,34,27,31,28,23,85,75,64,29.82,29.73,29.59,10,10,10,25,11,30,0.00,5,,277
2014-1-14,39,29,18,33,20,9,89,71,53,30.14,29.89,29.63,10,9,2,35,21,45,0.04,6,Rain-Snow,293
2014-1-15,28,20,11,16,8,4,76,63,50,30.24,30.08,29.76,10,10,10,24,14,29,0.00,4,,262
2014-1-16,40,24,8,29,15,-1,83,69,54,29.96,29.76,29.62,10,5,0,40,19,50,0.07,8,Fog-Snow,298
2014-1-17,17,11,4,7,2,-3,79,70,61,30.10,30.04,29.95,10,9,2,29,13,34,T,4,Snow,294
2014-1-18,37,23,9,31,18,4,89,73,56,30.04,29.75,29.56,10,8,1,32,15,43,T,6,Snow,257
2014-1-19,49,32,15,30,23,11,88,67,46,30.01,29.79,29.64,10,10,10,25,15,29,0.00,0,,247
2014-1-20,42,28,13,31,24,8,92,76,60,30.26,30.00,29.79,10,6,1,36,14,42,T,5,Snow,326
2014-1-21,13,6,-2,7,-3,-12,84,72,59,30.49,30.34,30.16,10,9,2,33,12,39,T,4,Snow,322
2014-1-22,19,8,-3,11,3,-11,76,67,57,30.51,30.18,29.98,10,8,2,32,20,40,T,6,Snow,311
2014-1-23,7,1,-6,-5,-10,-14,79,67,55,30.80,30.70,30.53,10,10,10,24,13,30,0.00,0,,291
2014-1-24,39,19,-1,31,8,-7,75,57,38,30.57,29.99,29.60,10,10,10,36,19,43,0.01,4,Rain,228
2014-1-25,38,29,19,34,9,-5,85,56,27,29.98,29.84,29.64,10,10,10,38,19,47,T,4,Rain,304
2014-1-26,48,27,5,30,18,-9,62,51,40,30.19,29.67,29.45,10,9,2,47,25,60,T,5,Rain-Snow,299
2014-1-27,7,1,-5,-9,-11,-14,71,58,45,30.55,30.40,30.21,10,10,10,35,16,43,0.00,2,,318
2014-1-28,18,6,-7,-5,-8,-12,75,56,37,30.54,30.43,30.31,10,10,10,20,7,25,0.00,1,,264
2014-1-29,37,19,0,11,3,-7,75,50,25,30.29,30.10,29.82,10,10,10,23,13,32,0.00,0,,202
2014-1-30,41,28,14,25,15,5,74,53,32,30.09,29.75,29.59,10,9,2,31,21,41,T,5,Snow,251
2014-1-31,16,13,9,8,4,-1,73,67,61,30.24,30.14,29.99,10,8,2,20,9,23,T,6,Snow,18